sat.trackr.live / text

‹ back to catalog

KUIPER-00140

NORAD 65965 · 2025-228U

PAYLOAD ACTIVE UNKNOWN

§ Identity

Operator
Country
US
Launch date
2025-10-14
Launch site
AFETR
Launch vehicle
Mass (kg)
RCS (m²)

External: N2YO · Heavens-Above · Gunter

§ Orbital elements

Epoch: 2026-09-20T13:39:11.671776Z

Period
97.30 min
Inclination
51.8995°
Eccentricity
0.0001075
Mean motion
14.79933023 rev/d
Perigee alt
628.8 km
Apogee alt
630.3 km
Semi-major
7,007.7 km
B*
3.0652e-4
RAAN
203.8996°
Arg perigee
75.9376°
Mean anomaly
284.1706°
Rev number
5,229

§ Raw data

KUIPER-001401 65965U 25228U   26263.56888509  .00002116  00000+0  30652-3 0  99962 65965  51.8995 203.8996 0001075  75.9376 284.1706 14.79933023 52294

JSON: /api/v1/satellites/65965 · /tle

For live sub-satellite position, see the globe view (requires WebGL).

§ Visibility from observer

Set your observer location to see the next 7 days of passes ≥ 10°. The values pass through the URL so the page stays shareable.

No JS? Fill the form by hand. The geolocation button needs JavaScript.